Zurück zum Katalog

COSMOS 2352

AktivMilitärPO
NORAD 25363·PAYLOAD·🇷🇺 Russia

Gestartet Jun 15, 1998 von Plesetsk Cosmodrome

Loading…

Nächste Überflüge (nächste 24 Stunden)

TLE

AktuellSource: Space-Track

Epoche: Sep 14, 2026, 14:52 UTC

1 25363U 98036A   26257.61967375 -.00000000  00000-0 -96146-4 0  9993
2 25363  82.5924 310.3631 0353430  76.5038  74.6962 12.20138489258204

Verfolge COSMOS 2352 in Echtzeit mit AllMySat

Download on the App Store